OBJECT C, 66055

Orbit data source: Space-Track

You're viewing an Uncataloged Satellite

Recently launched and/or uncataloged satellites may have evolving metadata. Metadata may include but not limited to: Owner, Maufacturer, Bus, Motor, and Mission.

OBJECT C, 66055 is a satellite in SSO that was launched on Sun, 19 Oct 2025 UTC via a LIJIAN-1 launch vehicle from the Jiuquan Satellite Launch Center, China (JSC). Unknown objects in Earth's orbit typically refer to objects detected orbiting the Earth but have not yet been identified or cataloged. These objects could be anything from previously untracked satellites, spent rocket stages, debris from satellite collisions, or even natural meteoroids temporarily captured by Earth's gravity.

Loading next visibility...
Identifier
66055, 2025-234C
Orbit
SSO
Country
Flag of TBDTBD
Related business
None
Manufacturer
Unknown
Mission
Operational Commercial Radar Imaging
Bus & Motor
Unknown
Mass
Unknown
Launch date (UTC)
2025-10-19 (5 months ago)
Launch vehicle
LIJIAN-1
Launch site
Jiuquan Satellite Launch Center, China (JSC)
Object type
Unknown
Shape & HBR
Box + 3 Pan, 0.9 m
Radar Cross Section
3.533 m²

Expand to show TLE details & history
Last TLE update: 8 hours ago

TLE from 8 hours ago
0 OBJECT C
1 66055U 25234C   26094.27733968  .00010081  00000-0  42377-3 0  9990
2 66055  97.4309 163.3699 0016254  61.7345 298.5530 15.23490559 25436
Epoch: 2026-04-04T06:39Z
TLE epoch observation values (Epoch: 2026-04-04T06:39:22.148Z)
Latitude
-0.00003°
Longitude
-129.0718°
Altitude
493.089 km
Speed
7.621 km/s
True Right ascension
10h 53m 28s
True Declination
0° 00' 00"
Sunlit
Object was in full shadow at epoch
Visualization orbit readout
Latitude
Unknown
Longitude
Unknown
Altitude
Unknown
Speed
Unknown
Apparent Right ascension
Unknown
Apparent Declination
Unknown
Sunlit
N/A
Visualization observer readout
Local Sidereal Time
20:15:41
Azimuth
Unknown
Elevation
Unknown
Doppler factor
Unknown
Orbital elements
Apogee altitude
503.451 km
Perigee altitude
481.117 km
Semi-major axis
6,870.421 km
Eccentricity
0.00163
Inclination
97.4309°
RAAN
163.3699°
Arg. of periapsis
61.7345°
True anomaly
298.38924°
Mean anomaly
298.553°
Eccentric anomaly
298.47113°
Mean motion
3.81126 °/min
Orbital period
94.46 mins
BSTAR
0.00042377
Loading maneuver chart data...
Computing Atmospheric mass density...
Loading historical data...
Loading historical data...
Loading historical data...
Loading historical data...
Loading historical data...
Loading historical data...
Loading historical data...
Other satellites on launch #234 in the year 2025 (2025-10-19 UTC)

Documentation

Showing up to 5 results
|